SCP
0 0 0 0 0 0 0 0 0 0 0 0 0 0 0 0 0 0 0 0 0 0 0 0 0 0 0 0 0 0 0 0 0 0 0 0 0 0 0 0 0 1 1 1
0 0 0 0 0 0 0 0 0 0 0 0 0 0 0 0 0 0 0 0 0 0 0 0 0 0 0 0 0 0 0 0 0 0 0 0 0 0 0 0 0 0 0 1
0 0 0 0 0 0 0 0 0 0 0 0 0 0 0 0 0 0 0 0 0 0 0 0 0 0 0 0 0 0 0 0 0 0 0 0 0 0 0 0 0 0 0 0
0 0 0 0 0 0 0 0 0 0 0 0 0 0 0 0 0 0 0 0 0 0 0 0 0 0 0 0 0 0 0 0 0 0 0 0 0 0 0 0 0 0 0 0
0 0 0 0 0 0 0 0 0 0 0 0 0 0 0 0 0 0 0 0 0 0 0 0 0 0 0 0 0 0 0 0 0 0 0 0 0 0 0 0 0 0 0 0
0 0 0 0 0 0 0 0 0 0 0 0 0 0 0 0 0 0 0 0 0 0 0 0 0 0 0 0 0 0 0 0 0 0 0 0 0 0 0 0 0 0 0 0
0 0 0 0 0 0 0 0 0 0 0 0 0 0 0 0 0 0 0 0 0 0 0 0 0 0 0 0 0 0 0 0 0 0 0 0 0 0 0 0 0 0 0 0
0 0 0 0 0 0 0 0 0 0 0 0 0 0 0 0 0 0 0 0 0 0 0 0 0 0 0 0 0 0 0 0 0 0 0 0 0 0 0 0 0 0 0 0
0 0 0 0 0 0 0 0 0 0 0 0 0 0 0 0 0 0 0 0 0 0 0 0 0 0 0 0 0 0 0 0 0 0 0 0 0 0 0 0 0 0 0 0
0 0 0 0 0 0 0 0 0 0 0 0 0 0 0 0 0 0 0 0 0 0 0 0 0 0 0 0 0 0 0 0 0 0 0 0 0 0 0 0 0 0 0 0
0 0 0 0 0 0 0 0 0 0 0 0 0 0 0 0 0 0 0 0 0 0 0 0 0 0 0 0 0 0 0 0 0 0 0 0 0 0 0 0 0 0 0 0
0 0 0 0 0 0 0 0 0 0 0 0 0 0 0 0 0 0 0 0 0 0 0 0 0 0 0 0 0 0 0 0 0 0 0 0 0 0 0 0 0 0 0 0
0 0 0 0 0 0 0 0 0 0 0 0 0 0 0 0 0 0 0 0 0 0 0 0 0 0 0 0 0 0 0 0 0 0 0 0 0 0 0 0 0 0 0 0
0 0 0 0 0 0 0 0 0 0 0 0 0 0 0 0 0 0 0 0 0 0 0 0 0 0 0 0 0 0 0 0 0 0 0 0 0 0 0 0 0 0 0 0
0 0 0 0 0 0 0 0 0 0 0 0 0 0 0 0 0 0 0 0 0 0 0 0 0 0 0 0 0 0 0 0 0 0 0 0 0 0 0 0 0 0 0 0
0 0 0 0 0 0 0 0 0 0 0 0 0 0 0 0 0 0 0 0 0 0 0 0 0 0 0 0 0 0 0 0 0 0 0 0 0 0 0 0 0 0 0 0
0 0 0 0 0 0 0 0 0 0 0 0 0 0 0 0 0 0 0 0 0 0 0 0 0 0 0 0 0 0 0 0 0 0 0 0 0 0 0 0 0 0 0 0
0 0 0 0 0 0 0 0 0 0 0 0 0 0 0 0 0 0 0 0 0 0 0 0 0 0 0 0 0 0 0 0 0 0 0 0 0 0 0 0 0 0 0 0
0 0 0 0 0 0 0 0 0 0 0 0 0 0 0 0 0 0 0 0 0 0 0 0 0 0 0 0 0 0 0 0 0 0 0 0 0 0 0 0 0 0 0 0
0 0 0 0 0 0 0 0 0 0 0 0 0 0 0 0 0 0 0 0 0 0 0 0 0 0 0 0 0 0 0 0 0 0 0 0 0 0 0 0 0 0 0 0
0 0 0 0 0 0 0 0 0 0 0 0 0 0 0 0 0 0 0 0 0 0 0 0 0 -0 0 0 0 0 0 0 0 0 0 0 0 0 0 0 0 0 0 0
0 0 0 0 0 0 0 0 0 0 0 0 0 0 0 0 0 0 0 0 0 0 0 0 0 -0 -0 0 0 0 0 0 0 0 0 0 0 0 0 0 0 0 0 0
0 0 0 0 0 0 0 0 0 0 0 0 0 0 0 0 0 0 0 0 0 0 0 0 0 0 0 0 0 0 0 0 0 0 0 0 0 0 0 0 0 0 0 0
0 0 0 0 0 0 0 0 0 0 0 0 0 0 0 0 0 0 0 0 0 0 0 0 0 0 0 0 0 0 0 0 0 0 0 0 0 0 0 0 0 0 0 0
0 0 0 0 0 0 0 0 0 0 0 0 0 0 0 0 0 0 0 0 0 0 0 0 0 0 0 0 0 0 0 0 0 0 0 0 0 0 0 0 0 0 0 0
0 0 0 0 0 0 0 0 0 0 0 0 0 0 -0 0 -0 -0 0 0 0 0 0 0 0 0 0 0 0 0 0 0 0 0 0 0 0 0 0 0 0 0 0 0
0 0 0 0 0 0 0 0 0 0 0 0 0 0 -0 -0 -0 -0 -0 0 0 0 0 0 0 0 0 0 0 -0 -0 -0 -0 0 0 0 0 0 0 0 0 0 0 0
Wind_Speed_500mb
22 22 23 23 15 10 10 6 10 2 7 2 24 22 24 21 17 15 15 15 19 22 25 25 32 39 50 47 48 42 31 28 29 40 35 25 24 23 24 25 25 25 23 29
5 5 7 20 20 21 15 7 4 3 7 2 25 24 22 22 21 19 15 16 19 25 24 27 32 35 30 40 40 33 26 25 29 37 39 24 18 17 20 24 26 22 18 22
7 8 3 6 10 14 10 6 1 3 6 20 24 25 27 28 26 23 21 24 22 25 29 27 32 38 39 42 42 38 36 32 31 32 33 37 36 18 15 10 12 14 16 14
6 5 14 9 5 4 10 6 2 1 9 23 28 21 20 20 25 25 23 23 24 26 28 28 28 26 27 32 33 34 32 26 22 17 20 25 26 31 37 28 20 16 14 17
5 5 5 12 7 4 4 4 4 7 19 30 30 24 15 20 22 26 26 25 26 25 27 30 31 30 31 33 32 32 27 22 18 15 15 18 20 22 23 22 18 18 26 25
5 5 8 7 3 11 8 7 8 13 24 34 36 16 12 32 30 29 30 31 32 32 32 29 30 25 21 24 23 21 22 17 13 11 10 13 13 13 11 10 13 14 12 18
6 4 1 3 9 7 9 6 1 15 20 27 14 7 15 36 33 34 36 38 37 35 33 31 29 22 16 18 15 14 11 9 8 7 7 8 10 11 12 13 13 11 12 14
5 4 10 8 3 4 6 8 6 14 21 25 8 4 32 38 41 43 43 41 37 36 32 27 21 15 10 8 7 6 5 6 8 9 9 10 11 12 12 13 14 16 17 17
7 1 1 5 5 5 8 10 12 8 18 24 19 16 31 36 43 44 41 40 35 26 22 19 13 9 7 6 7 7 9 10 11 12 13 13 13 15 16 17 18 21 21 23
5 9 10 6 5 5 6 11 14 10 12 24 26 24 35 41 44 44 41 36 30 24 18 14 11 9 9 11 13 13 13 13 15 16 16 15 14 14 13 13 15 18 20 21
5 10 8 15 14 7 4 4 11 11 4 17 26 32 39 46 47 45 40 35 28 21 16 13 11 11 12 12 12 12 12 13 14 15 15 14 15 14 14 15 14 15 15 16
9 15 16 6 17 19 13 7 3 3 2 7 19 26 39 47 46 47 42 37 32 24 19 16 16 16 15 14 12 11 12 13 14 14 14 13 11 11 10 13 15 14 15 14
6 13 22 13 12 16 17 12 11 11 11 11 13 23 32 46 49 53 50 42 34 26 26 23 21 18 16 15 13 12 13 12 11 11 11 9 9 7 4 2 3 8 12 13
18 12 12 17 9 12 10 6 4 8 18 24 23 26 29 35 41 54 51 42 43 37 31 24 22 20 17 16 15 12 12 12 11 10 10 10 11 11 10 8 4 2 4 7
24 22 9 19 16 13 6 4 7 10 14 17 24 37 41 41 45 47 48 57 52 44 36 28 27 24 20 19 17 14 14 14 14 13 11 10 9 8 7 6 4 4 7 9
22 29 19 14 15 8 9 10 8 6 8 12 19 23 31 42 50 57 64 68 61 55 49 40 34 29 24 23 21 19 19 16 14 12 9 7 6 5 4 4 6 9 12 17
23 22 22 16 8 4 4 6 6 7 10 12 13 16 19 27 41 51 64 70 70 67 60 47 36 37 30 28 25 23 22 20 17 13 10 9 6 4 4 6 8 11 14 19
21 21 18 11 7 6 5 4 8 12 14 14 16 19 19 21 25 30 42 54 70 73 70 54 46 46 39 36 34 31 27 24 21 18 15 11 6 1 3 7 11 14 16 21
25 19 15 12 9 6 6 9 12 14 15 10 13 15 17 19 24 27 34 42 55 69 79 58 61 59 55 46 42 38 33 30 26 21 18 14 9 6 6 8 12 16 20 23
24 22 18 15 14 13 11 12 17 16 17 19 19 25 24 23 27 24 27 42 47 50 68 71 61 70 66 61 52 47 40 34 29 23 18 14 11 9 9 12 13 16 20 25
23 19 15 10 5 4 2 4 8 13 18 23 27 31 33 33 34 29 34 34 36 45 67 63 75 64 63 73 68 55 48 42 35 28 21 16 12 9 9 11 15 19 23 28
19 13 9 8 5 1 6 12 17 23 30 36 40 44 48 49 44 42 41 41 30 26 25 44 83 79 70 66 80 66 58 49 40 31 24 20 16 14 14 16 19 23 28 33
15 13 10 8 4 3 7 9 14 20 24 25 26 29 32 38 40 45 46 35 36 44 35 29 27 23 38 57 69 79 67 56 44 34 27 22 19 18 18 19 23 28 32 36
16 13 7 3 5 6 13 13 20 27 31 30 29 30 29 29 25 27 38 40 31 29 34 27 34 40 43 46 55 78 78 61 47 41 33 27 24 21 19 21 26 32 36 39
13 9 2 4 15 19 17 20 19 23 30 33 36 43 36 29 19 13 11 22 23 24 27 30 31 29 43 43 46 59 62 61 49 33 31 28 25 23 23 28 32 34 37 38
11 7 1 17 19 13 9 11 12 15 21 23 30 40 40 43 26 12 5 3 9 18 21 17 17 20 34 45 41 58 50 41 37 28 25 25 26 27 30 32 36 36 34 35
14 8 15 19 18 6 3 9 15 8 15 21 24 27 27 33 33 36 20 14 14 9 6 13 25 28 31 37 37 32 35 28 25 25 24 25 27 30 33 36 38 37 32 31
Wind_Direction_500mb
107 103 84 77 89 97 132 118 222 64 232 141 185 175 170 169 162 165 168 168 181 178 185 191 196 213 220 223 231 232 218 232 223 214 207 200 208 214 222 233 242 247 251 245
81 49 54 85 81 88 90 97 130 8 183 294 157 153 158 166 167 168 173 170 167 177 172 180 190 199 192 203 208 196 200 206 212 220 214 184 174 183 214 230 235 233 232 237
267 343 240 216 41 82 105 95 100 219 87 152 158 163 169 168 172 167 164 168 163 171 176 169 168 172 177 185 191 193 191 196 203 215 223 222 227 229 245 224 208 222 222 221
165 232 224 66 346 35 82 86 75 202 172 166 161 158 161 166 161 155 151 149 151 155 162 167 175 183 196 190 188 187 192 199 203 202 202 209 220 232 237 237 253 249 238 238
183 199 329 127 57 360 326 48 81 124 146 144 142 139 162 168 160 153 149 145 143 144 152 146 152 157 164 162 169 176 188 189 191 187 200 228 231 232 223 224 232 249 248 252
162 199 205 72 81 340 247 253 177 165 165 161 158 181 162 174 166 155 161 156 149 142 138 139 132 127 140 143 142 148 153 167 178 198 215 224 216 205 212 221 223 218 237 248
156 202 270 317 312 313 226 57 284 194 184 182 190 16 158 162 161 167 163 157 153 148 142 140 135 134 139 134 143 143 147 155 174 194 212 231 222 224 219 215 225 240 256 261
139 171 230 354 288 282 23 360 328 215 200 193 201 9 155 159 163 164 161 157 155 154 154 156 159 166 188 198 209 214 235 251 255 255 245 243 240 232 229 232 240 241 242 247
207 209 55 323 62 72 67 34 5 281 219 194 171 149 161 163 168 172 173 169 166 171 174 177 187 192 201 231 241 251 261 267 264 257 258 256 248 245 241 240 237 240 240 241
192 181 221 214 183 140 80 32 17 27 201 197 184 177 174 174 178 180 182 181 184 189 200 201 204 228 261 272 272 270 265 257 254 256 252 247 248 247 243 234 233 236 240 244
237 260 268 247 230 209 207 61 34 32 122 200 211 197 192 191 192 193 192 194 197 199 206 229 249 269 276 272 267 264 261 259 256 252 250 246 245 245 246 248 247 251 254 257
212 206 201 217 227 229 228 214 154 50 44 205 213 211 199 200 204 208 205 206 205 207 225 246 257 260 267 271 264 256 248 244 242 240 239 243 250 254 262 269 274 276 274 282
234 214 208 223 214 221 226 234 236 232 232 230 233 229 219 211 217 211 209 214 220 230 230 235 243 253 261 263 252 242 243 242 235 223 217 209 202 203 211 241 295 301 304 310
213 184 177 178 171 156 147 152 202 247 248 250 251 241 232 233 229 220 228 228 225 218 222 230 241 243 251 243 231 225 220 215 204 188 172 160 154 155 158 158 146 356 323 320
204 196 209 187 166 163 172 248 268 261 256 259 258 253 257 247 237 234 235 229 225 216 220 230 234 235 243 230 218 209 200 190 176 168 160 151 139 130 125 115 91 43 16 358
197 191 164 168 171 190 253 266 272 277 274 272 270 267 268 261 256 249 237 230 225 226 229 232 233 230 233 221 211 205 198 195 189 183 180 165 135 121 98 71 44 25 11 5
177 183 189 176 186 200 201 225 261 279 298 304 291 290 280 271 256 250 246 243 236 233 232 235 237 224 225 218 212 205 204 205 204 198 191 181 163 118 59 42 32 18 8 5
201 185 172 167 167 162 176 215 285 284 293 301 308 307 298 291 288 278 263 256 247 236 230 232 233 225 225 220 212 208 208 208 206 208 206 200 199 233 19 20 16 15 5 353
171 169 167 158 157 177 224 279 305 298 290 285 305 310 296 300 302 286 270 265 258 242 228 230 235 233 226 223 216 211 209 208 207 208 209 217 233 261 302 334 340 344 351 356
174 174 174 180 193 213 239 279 287 285 288 285 290 301 298 306 305 296 288 271 265 255 231 231 241 238 230 226 219 216 211 210 210 209 212 218 227 246 270 307 323 331 339 344
159 164 170 184 218 264 299 331 312 310 309 308 303 292 286 280 276 272 274 273 284 266 247 241 243 255 251 233 221 217 216 210 211 213 220 223 231 253 273 300 316 325 326 329
138 141 151 160 169 266 325 317 311 309 309 304 298 291 284 275 268 266 261 262 260 250 276 259 238 249 254 237 220 216 216 215 209 207 218 226 237 255 277 298 308 312 317 321
146 147 139 125 108 342 335 352 352 346 343 341 341 336 317 290 272 260 258 257 253 249 264 261 245 219 245 225 221 215 218 213 211 216 221 234 242 254 271 288 298 306 311 313
147 143 134 80 0 86 107 52 46 43 27 13 5 356 342 320 304 284 257 245 244 238 243 257 254 235 231 231 238 227 206 203 202 227 234 239 242 253 268 288 301 307 308 310
161 159 87 351 137 128 97 70 62 40 35 29 22 20 12 5 332 297 263 236 230 228 244 258 252 238 228 227 231 210 205 203 214 207 236 236 237 244 265 284 293 302 306 308
187 185 256 147 149 125 80 50 30 33 30 19 19 24 30 32 34 47 56 137 237 258 274 248 220 213 224 228 227 196 194 186 203 222 226 231 244 262 276 284 284 291 302 306
202 193 164 159 154 140 29 27 29 22 10 10 17 21 28 33 40 49 62 67 64 47 199 145 140 140 136 132 128 138 185 209 211 222 235 249 263 273 278 280 279 281 291 304
Wind_Speed_850mb
22 22 23 23 15 10 10 6 10 2 7 2 24 22 24 21 17 15 15 15 19 22 25 25 32 39 50 47 48 42 31 28 29 40 35 25 24 23 24 25 25 25 23 29
5 5 7 20 20 21 15 7 4 3 7 2 25 24 22 22 21 19 15 16 19 25 24 27 32 35 30 40 40 33 26 25 29 37 39 24 18 17 20 24 26 22 18 22
7 8 3 6 10 14 10 6 1 3 6 20 24 25 27 28 26 23 21 24 22 25 29 27 32 38 39 42 42 38 36 32 31 32 33 37 36 18 15 10 12 14 16 14
6 5 14 9 5 4 10 6 2 1 9 23 28 21 20 20 25 25 23 23 24 26 28 28 28 26 27 32 33 34 32 26 22 17 20 25 26 31 37 28 20 16 14 17
5 5 5 12 7 4 4 4 4 7 19 30 30 24 15 20 22 26 26 25 26 25 27 30 31 30 31 33 32 32 27 22 18 15 15 18 20 22 23 22 18 18 26 25
5 5 8 7 3 11 8 7 8 13 24 34 36 16 12 32 30 29 30 31 32 32 32 29 30 25 21 24 23 21 22 17 13 11 10 13 13 13 11 10 13 14 12 18
6 4 1 3 9 7 9 6 1 15 20 27 14 7 15 36 33 34 36 38 37 35 33 31 29 22 16 18 15 14 11 9 8 7 7 8 10 11 12 13 13 11 12 14
5 4 10 8 3 4 6 8 6 14 21 25 8 4 32 38 41 43 43 41 37 36 32 27 21 15 10 8 7 6 5 6 8 9 9 10 11 12 12 13 14 16 17 17
7 1 1 5 5 5 8 10 12 8 18 24 19 16 31 36 43 44 41 40 35 26 22 19 13 9 7 6 7 7 9 10 11 12 13 13 13 15 16 17 18 21 21 23
5 9 10 6 5 5 6 11 14 10 12 24 26 24 35 41 44 44 41 36 30 24 18 14 11 9 9 11 13 13 13 13 15 16 16 15 14 14 13 13 15 18 20 21
5 10 8 15 14 7 4 4 11 11 4 17 26 32 39 46 47 45 40 35 28 21 16 13 11 11 12 12 12 12 12 13 14 15 15 14 15 14 14 15 14 15 15 16
9 15 16 6 17 19 13 7 3 3 2 7 19 26 39 47 46 47 42 37 32 24 19 16 16 16 15 14 12 11 12 13 14 14 14 13 11 11 10 13 15 14 15 14
6 13 22 13 12 16 17 12 11 11 11 11 13 23 32 46 49 53 50 42 34 26 26 23 21 18 16 15 13 12 13 12 11 11 11 9 9 7 4 2 3 8 12 13
18 12 12 17 9 12 10 6 4 8 18 24 23 26 29 35 41 54 51 42 43 37 31 24 22 20 17 16 15 12 12 12 11 10 10 10 11 11 10 8 4 2 4 7
24 22 9 19 16 13 6 4 7 10 14 17 24 37 41 41 45 47 48 57 52 44 36 28 27 24 20 19 17 14 14 14 14 13 11 10 9 8 7 6 4 4 7 9
22 29 19 14 15 8 9 10 8 6 8 12 19 23 31 42 50 57 64 68 61 55 49 40 34 29 24 23 21 19 19 16 14 12 9 7 6 5 4 4 6 9 12 17
23 22 22 16 8 4 4 6 6 7 10 12 13 16 19 27 41 51 64 70 70 67 60 47 36 37 30 28 25 23 22 20 17 13 10 9 6 4 4 6 8 11 14 19
21 21 18 11 7 6 5 4 8 12 14 14 16 19 19 21 25 30 42 54 70 73 70 54 46 46 39 36 34 31 27 24 21 18 15 11 6 1 3 7 11 14 16 21
25 19 15 12 9 6 6 9 12 14 15 10 13 15 17 19 24 27 34 42 55 69 79 58 61 59 55 46 42 38 33 30 26 21 18 14 9 6 6 8 12 16 20 23
24 22 18 15 14 13 11 12 17 16 17 19 19 25 24 23 27 24 27 42 47 50 68 71 61 70 66 61 52 47 40 34 29 23 18 14 11 9 9 12 13 16 20 25
23 19 15 10 5 4 2 4 8 13 18 23 27 31 33 33 34 29 34 34 36 45 67 63 75 64 63 73 68 55 48 42 35 28 21 16 12 9 9 11 15 19 23 28
19 13 9 8 5 1 6 12 17 23 30 36 40 44 48 49 44 42 41 41 30 26 25 44 83 79 70 66 80 66 58 49 40 31 24 20 16 14 14 16 19 23 28 33
15 13 10 8 4 3 7 9 14 20 24 25 26 29 32 38 40 45 46 35 36 44 35 29 27 23 38 57 69 79 67 56 44 34 27 22 19 18 18 19 23 28 32 36
16 13 7 3 5 6 13 13 20 27 31 30 29 30 29 29 25 27 38 40 31 29 34 27 34 40 43 46 55 78 78 61 47 41 33 27 24 21 19 21 26 32 36 39
13 9 2 4 15 19 17 20 19 23 30 33 36 43 36 29 19 13 11 22 23 24 27 30 31 29 43 43 46 59 62 61 49 33 31 28 25 23 23 28 32 34 37 38
11 7 1 17 19 13 9 11 12 15 21 23 30 40 40 43 26 12 5 3 9 18 21 17 17 20 34 45 41 58 50 41 37 28 25 25 26 27 30 32 36 36 34 35
14 8 15 19 18 6 3 9 15 8 15 21 24 27 27 33 33 36 20 14 14 9 6 13 25 28 31 37 37 32 35 28 25 25 24 25 27 30 33 36 38 37 32 31
Wind_Direction_850mb
107 103 84 77 89 97 132 118 222 64 232 141 185 175 170 169 162 165 168 168 181 178 185 191 196 213 220 223 231 232 218 232 223 214 207 200 208 214 222 233 242 247 251 245
81 49 54 85 81 88 90 97 130 8 183 294 157 153 158 166 167 168 173 170 167 177 172 180 190 199 192 203 208 196 200 206 212 220 214 184 174 183 214 230 235 233 232 237
267 343 240 216 41 82 105 95 100 219 87 152 158 163 169 168 172 167 164 168 163 171 176 169 168 172 177 185 191 193 191 196 203 215 223 222 227 229 245 224 208 222 222 221
165 232 224 66 346 35 82 86 75 202 172 166 161 158 161 166 161 155 151 149 151 155 162 167 175 183 196 190 188 187 192 199 203 202 202 209 220 232 237 237 253 249 238 238
183 199 329 127 57 360 326 48 81 124 146 144 142 139 162 168 160 153 149 145 143 144 152 146 152 157 164 162 169 176 188 189 191 187 200 228 231 232 223 224 232 249 248 252
162 199 205 72 81 340 247 253 177 165 165 161 158 181 162 174 166 155 161 156 149 142 138 139 132 127 140 143 142 148 153 167 178 198 215 224 216 205 212 221 223 218 237 248
156 202 270 317 312 313 226 57 284 194 184 182 190 16 158 162 161 167 163 157 153 148 142 140 135 134 139 134 143 143 147 155 174 194 212 231 222 224 219 215 225 240 256 261
139 171 230 354 288 282 23 360 328 215 200 193 201 9 155 159 163 164 161 157 155 154 154 156 159 166 188 198 209 214 235 251 255 255 245 243 240 232 229 232 240 241 242 247
207 209 55 323 62 72 67 34 5 281 219 194 171 149 161 163 168 172 173 169 166 171 174 177 187 192 201 231 241 251 261 267 264 257 258 256 248 245 241 240 237 240 240 241
192 181 221 214 183 140 80 32 17 27 201 197 184 177 174 174 178 180 182 181 184 189 200 201 204 228 261 272 272 270 265 257 254 256 252 247 248 247 243 234 233 236 240 244
237 260 268 247 230 209 207 61 34 32 122 200 211 197 192 191 192 193 192 194 197 199 206 229 249 269 276 272 267 264 261 259 256 252 250 246 245 245 246 248 247 251 254 257
212 206 201 217 227 229 228 214 154 50 44 205 213 211 199 200 204 208 205 206 205 207 225 246 257 260 267 271 264 256 248 244 242 240 239 243 250 254 262 269 274 276 274 282
234 214 208 223 214 221 226 234 236 232 232 230 233 229 219 211 217 211 209 214 220 230 230 235 243 253 261 263 252 242 243 242 235 223 217 209 202 203 211 241 295 301 304 310
213 184 177 178 171 156 147 152 202 247 248 250 251 241 232 233 229 220 228 228 225 218 222 230 241 243 251 243 231 225 220 215 204 188 172 160 154 155 158 158 146 356 323 320
204 196 209 187 166 163 172 248 268 261 256 259 258 253 257 247 237 234 235 229 225 216 220 230 234 235 243 230 218 209 200 190 176 168 160 151 139 130 125 115 91 43 16 358
197 191 164 168 171 190 253 266 272 277 274 272 270 267 268 261 256 249 237 230 225 226 229 232 233 230 233 221 211 205 198 195 189 183 180 165 135 121 98 71 44 25 11 5
177 183 189 176 186 200 201 225 261 279 298 304 291 290 280 271 256 250 246 243 236 233 232 235 237 224 225 218 212 205 204 205 204 198 191 181 163 118 59 42 32 18 8 5
201 185 172 167 167 162 176 215 285 284 293 301 308 307 298 291 288 278 263 256 247 236 230 232 233 225 225 220 212 208 208 208 206 208 206 200 199 233 19 20 16 15 5 353
171 169 167 158 157 177 224 279 305 298 290 285 305 310 296 300 302 286 270 265 258 242 228 230 235 233 226 223 216 211 209 208 207 208 209 217 233 261 302 334 340 344 351 356
174 174 174 180 193 213 239 279 287 285 288 285 290 301 298 306 305 296 288 271 265 255 231 231 241 238 230 226 219 216 211 210 210 209 212 218 227 246 270 307 323 331 339 344
159 164 170 184 218 264 299 331 312 310 309 308 303 292 286 280 276 272 274 273 284 266 247 241 243 255 251 233 221 217 216 210 211 213 220 223 231 253 273 300 316 325 326 329
138 141 151 160 169 266 325 317 311 309 309 304 298 291 284 275 268 266 261 262 260 250 276 259 238 249 254 237 220 216 216 215 209 207 218 226 237 255 277 298 308 312 317 321
146 147 139 125 108 342 335 352 352 346 343 341 341 336 317 290 272 260 258 257 253 249 264 261 245 219 245 225 221 215 218 213 211 216 221 234 242 254 271 288 298 306 311 313
147 143 134 80 0 86 107 52 46 43 27 13 5 356 342 320 304 284 257 245 244 238 243 257 254 235 231 231 238 227 206 203 202 227 234 239 242 253 268 288 301 307 308 310
161 159 87 351 137 128 97 70 62 40 35 29 22 20 12 5 332 297 263 236 230 228 244 258 252 238 228 227 231 210 205 203 214 207 236 236 237 244 265 284 293 302 306 308
187 185 256 147 149 125 80 50 30 33 30 19 19 24 30 32 34 47 56 137 237 258 274 248 220 213 224 228 227 196 194 186 203 222 226 231 244 262 276 284 284 291 302 306
202 193 164 159 154 140 29 27 29 22 10 10 17 21 28 33 40 49 62 67 64 47 199 145 140 140 136 132 128 138 185 209 211 222 235 249 263 273 278 280 279 281 291 304